TimePDT,TemperatureF,Dew PointF,Humidity,Sea Level PressureIn,VisibilityMPH,Wind Direction,Wind SpeedMPH,Gust SpeedMPH,PrecipitationIn,Events,Conditions,WindDirDegrees,DateUTC
12:53 AM,59.0,57.9,96,29.94,9.0,Calm,Calm,-,N/A,,Mostly Cloudy,0,2013-08-15 07:53:00
1:28 AM,59.0,57.2,94,29.94,8.0,Calm,Calm,-,N/A,,Scattered Clouds,0,2013-08-15 08:28:00
1:37 AM,59.0,57.2,94,29.94,5.0,Calm,Calm,-,N/A,,Mostly Cloudy,0,2013-08-15 08:37:00
1:53 AM,57.9,57.9,100,29.93,5.0,Calm,Calm,-,N/A,,Overcast,0,2013-08-15 08:53:00
2:08 AM,57.2,57.2,100,29.94,3.0,Calm,Calm,-,N/A,,Overcast,0,2013-08-15 09:08:00
2:13 AM,57.2,57.2,100,29.94,1.8,Calm,Calm,-,N/A,,Overcast,0,2013-08-15 09:13:00
2:23 AM,57.2,55.4,94,29.94,0.5,Calm,Calm,-,N/A,Fog,Fog,0,2013-08-15 09:23:00
2:53 AM,55.9,55.9,100,29.94,0.2,Calm,Calm,-,N/A,Fog,Fog,0,2013-08-15 09:53:00
3:16 AM,57.2,55.4,94,29.94,2.0,Calm,Calm,-,N/A,,Overcast,0,2013-08-15 10:16:00
3:24 AM,57.2,55.4,94,29.94,5.0,Calm,Calm,-,N/A,,Overcast,0,2013-08-15 10:24:00
3:53 AM,55.9,55.9,100,29.95,4.0,West,3.5,-,N/A,,Overcast,260,2013-08-15 10:53:00
4:20 AM,55.4,53.6,94,29.94,1.5,East,6.9,-,N/A,,Overcast,100,2013-08-15 11:20:00
4:39 AM,55.4,53.6,94,29.94,2.0,Calm,Calm,-,N/A,,Overcast,0,2013-08-15 11:39:00
4:53 AM,55.0,55.0,100,29.94,2.5,Calm,Calm,-,N/A,,Overcast,0,2013-08-15 11:53:00
5:06 AM,55.4,55.4,100,29.93,3.0,Calm,Calm,-,N/A,,Overcast,0,2013-08-15 12:06:00
5:21 AM,55.4,55.4,100,29.93,2.5,Calm,Calm,-,N/A,,Overcast,0,2013-08-15 12:21:00
5:31 AM,55.4,55.4,100,29.94,3.0,Calm,Calm,-,N/A,,Overcast,0,2013-08-15 12:31:00
5:45 AM,55.4,55.4,100,29.94,2.5,Calm,Calm,-,N/A,,Overcast,0,2013-08-15 12:45:00
5:53 AM,55.0,55.0,100,29.94,2.5,Calm,Calm,-,N/A,,Overcast,0,2013-08-15 12:53:00
6:12 AM,55.4,53.6,94,29.95,2.5,Calm,Calm,-,N/A,,Overcast,0,2013-08-15 13:12:00
6:21 AM,53.6,53.6,100,29.95,4.0,Calm,Calm,-,N/A,,Overcast,0,2013-08-15 13:21:00
6:43 AM,53.6,53.6,100,29.95,1.8,Calm,Calm,-,N/A,,Overcast,0,2013-08-15 13:43:00
6:53 AM,54.0,54.0,100,29.96,1.5,Calm,Calm,-,N/A,,Overcast,0,2013-08-15 13:53:00
7:00 AM,55.4,53.6,94,29.95,1.8,Calm,Calm,-,N/A,,Overcast,0,2013-08-15 14:00:00
7:15 AM,55.4,53.6,94,29.96,0.5,South,3.5,-,N/A,Fog,Fog,190,2013-08-15 14:15:00
7:29 AM,55.4,55.4,100,29.96,1.2,Calm,Calm,-,N/A,,Overcast,0,2013-08-15 14:29:00
7:53 AM,55.9,55.0,97,29.96,0.8,Calm,Calm,-,N/A,,Overcast,0,2013-08-15 14:53:00
8:53 AM,55.9,55.9,100,29.96,0.8,Calm,Calm,-,N/A,,Mist,0,2013-08-15 15:53:00
9:03 AM,57.2,55.4,94,29.97,2.0,Calm,Calm,-,N/A,,Overcast,0,2013-08-15 16:03:00
9:18 AM,57.2,55.4,94,29.96,1.8,Calm,Calm,-,N/A,,Overcast,0,2013-08-15 16:18:00
9:33 AM,57.2,55.4,94,29.97,0.2,Calm,Calm,-,N/A,Fog,Fog,0,2013-08-15 16:33:00
9:53 AM,57.0,57.0,100,29.97,0.2,Calm,Calm,-,N/A,Fog,Fog,0,2013-08-15 16:53:00
10:53 AM,57.9,57.9,100,29.98,0.2,Calm,Calm,-,N/A,Fog,Fog,0,2013-08-15 17:53:00
11:40 AM,57.2,57.2,100,29.98,1.8,Calm,Calm,-,N/A,,Overcast,0,2013-08-15 18:40:00
11:53 AM,59.0,57.9,96,29.98,3.0,Calm,Calm,-,N/A,,Overcast,0,2013-08-15 18:53:00
11:57 AM,57.2,57.2,100,29.98,1.8,Calm,Calm,-,N/A,,Overcast,0,2013-08-15 18:57:00
12:08 PM,59.0,57.2,94,29.98,3.0,Calm,Calm,-,N/A,,Overcast,0,2013-08-15 19:08:00
12:22 PM,60.8,59.0,94,29.98,1.8,Calm,Calm,-,N/A,,Overcast,0,2013-08-15 19:22:00
12:36 PM,60.8,59.0,94,29.98,3.0,SSE,4.6,-,N/A,,Overcast,160,2013-08-15 19:36:00
12:53 PM,62.1,60.1,93,29.98,10.0,Variable,3.5,-,N/A,,Overcast,0,2013-08-15 19:53:00
1:05 PM,62.6,60.8,94,29.98,10.0,Variable,3.5,-,N/A,,Mostly Cloudy,0,2013-08-15 20:05:00
1:53 PM,63.0,59.0,87,30.00,10.0,ESE,5.8,-,N/A,,Scattered Clouds,120,2013-08-15 20:53:00
2:53 PM,57.9,55.9,93,30.01,4.0,Calm,Calm,-,0.00,Rain,Light Rain,0,2013-08-15 21:53:00
3:20 PM,57.2,55.4,94,30.00,2.5,Calm,Calm,-,0.00,Rain,Light Rain,0,2013-08-15 22:20:00
3:30 PM,57.2,55.4,94,30.01,1.5,Calm,Calm,-,0.00,Rain,Light Rain,0,2013-08-15 22:30:00
3:42 PM,57.2,57.2,100,30.00,3.0,Calm,Calm,-,0.00,Rain,Light Rain,0,2013-08-15 22:42:00
3:53 PM,59.0,57.9,96,30.01,8.0,Calm,Calm,-,0.00,,Overcast,0,2013-08-15 22:53:00
4:35 PM,59.0,57.2,94,30.00,5.0,Calm,Calm,-,0.00,,Scattered Clouds,0,2013-08-15 23:35:00
4:49 PM,57.2,57.2,100,30.00,4.0,Calm,Calm,-,0.00,,Mostly Cloudy,0,2013-08-15 23:49:00
4:53 PM,59.0,57.9,96,30.00,5.0,Calm,Calm,-,0.00,,Mostly Cloudy,0,2013-08-15 23:53:00
5:05 PM,60.8,60.8,100,30.00,9.0,Calm,Calm,-,N/A,,Scattered Clouds,0,2013-08-16 00:05:00
5:53 PM,60.1,57.9,93,30.00,10.0,Calm,Calm,-,N/A,,Overcast,0,2013-08-16 00:53:00
6:53 PM,57.9,55.9,93,29.99,10.0,Calm,Calm,-,N/A,,Overcast,0,2013-08-16 01:53:00
7:53 PM,57.9,57.0,97,29.99,10.0,Calm,Calm,-,N/A,,Overcast,0,2013-08-16 02:53:00
8:53 PM,57.0,55.9,96,30.00,10.0,Calm,Calm,-,N/A,,Overcast,0,2013-08-16 03:53:00
10:47 PM,53.6,51.8,94,30.00,1.8,Calm,Calm,-,N/A,,Clear,0,2013-08-16 05:47:00
10:50 PM,53.6,51.8,94,30.00,1.0,Calm,Calm,-,N/A,,Mist,0,2013-08-16 05:50:00
10:53 PM,53.1,53.1,100,30.00,0.8,Calm,Calm,-,N/A,,Mist,0,2013-08-16 05:53:00
11:03 PM,53.6,51.8,94,30.00,1.2,Calm,Calm,-,N/A,,Partly Cloudy,0,2013-08-16 06:03:00
11:09 PM,53.6,51.8,94,30.00,3.0,Calm,Calm,-,N/A,,Partly Cloudy,0,2013-08-16 06:09:00
11:22 PM,53.6,51.8,94,30.00,1.5,Calm,Calm,-,N/A,,Partly Cloudy,0,2013-08-16 06:22:00
11:28 PM,53.6,51.8,94,30.00,0.8,Calm,Calm,-,N/A,,Mist,0,2013-08-16 06:28:00
11:46 PM,53.6,51.8,94,30.00,2.0,Calm,Calm,-,N/A,,Mostly Cloudy,0,2013-08-16 06:46:00
11:53 PM,53.1,52.0,96,30.01,5.0,Calm,Calm,-,N/A,,Scattered Clouds,0,2013-08-16 06:53:00